Regional Weather Roundup
Issued by NWS

Home | Current Version | Previous Version | Graphics & Text | Print | Product List | Glossary On
Versions: 1 2 3 4 5 6 7 8 9 10 11 12 13 14 15 16 17 18 19 20 21 22 23 24 25 26 27 28 29 30 31 32 33 34 35 36 37 38 39 40 41 42 43 44 45 46 47 48 49 50
000
ASUS43 KFSD 262202
RWRSD

WEATHER ROUNDUP FOR SOUTH DAKOTA
NATIONAL WEATHER SERVICE SIOUX FALLS SD
500 PM CDT FRI MAY 26 2017

NOTE: "FAIR" INDICATES FEW OR NO CLOUDS BELOW 12,000 FEET WITH NO
SIGNIFICANT WEATHER AND/OR OBSTRUCTIONS TO VISIBILITY.


SDZ001>005-009-010-012>017-262300-
NORTHWEST AND NORTH CENTRAL SOUTH DAKOTA

CITY           SKY/WX    TMP DP  RH WIND       PRES   REMARKS
BUFFALO          N/A     65  36  34 W16       29.81S
FAITH            N/A     66  37  34 W13       29.86R
MOBRIDGE       MOSUNNY   72  39  30 NW15G26   29.78S
$$

SDZ012>016-024>037-041>051-057-063-072>074-262300-
SOUTHWEST AND SOUTH CENTRAL SOUTH DAKOTA

CITY           SKY/WX    TMP DP  RH WIND       PRES   REMARKS
RAPID CTY ARPT CLOUDY    62  38  40 S9        29.89F
PIERRE         SUNNY     72  36  26 NW13G21   29.82F
CUSTER         CLOUDY    50  37  61 S7        29.95R
ELLSWORTH AFB  CLOUDY    62  35  35 N3        29.88F
PHILIP         CLOUDY    69  36  29 NW12      29.86S
PINE RIDGE     PTSUNNY   67  40  37 CALM      29.89R
SPEARFISH      FAIR      57  39  51 S12       29.92R
WINNER         FAIR      73  40  30 W12       29.85F
$$

SDZ004>011-016>023-039-040-262300-
NORTHEAST SOUTH DAKOTA

CITY           SKY/WX    TMP DP  RH WIND       PRES   REMARKS
ABERDEEN       SUNNY     71  40  32 NW14G24   29.80R
WATERTOWN      SUNNY     70  43  37 NW14G21   29.79R
BROOKINGS      SUNNY     70  44  39 W16G24    29.81S
SISSETON         N/A     71  44  37 NW16G25   29.76S
$$

SDZ017-020-022-023-036>040-048>070-262300-
SOUTHEAST SOUTH DAKOTA

CITY           SKY/WX    TMP DP  RH WIND       PRES   REMARKS
SIOUX FALLS    MOSUNNY   73  47  39 NW9       29.82S
HURON          SUNNY     75  42  30 NW13G28   29.80S
CHAMBERLAIN    SUNNY     74  40  30 NW9G21    29.83F
MITCHELL       SUNNY     76  38  25 NW12G26   29.82F
YANKTON        SUNNY     73  44  35 NW10      29.84S
$$

ABBREVIATIONS USED IN REMARKS
   TC - TEMPERATURE IN CELSIUS
  WCI - WIND CHILL INDEX
   HX - HEAT INDEX
  VSB - VISIBILITY





USA.gov is the U.S. government's official web portal to all federal, state and local government web resources and services.